Regional Weather Roundup
Issued by NWS Sioux Falls, SD

Home | Current Version | Previous Version | Text Only | Print | Product List | Glossary On
Versions: 1 2 3 4 5 6 7 8 9 10 11 12 13 14 15 16 17 18 19 20 21 22 23 24 25 26 27 28 29 30 31 32 33 34 35 36 37 38 39 40 41 42 43 44 45 46 47 48 49 50
000
ASUS43 KFSD 302010
RWRFSD

WEATHER ROUNDUP FOR SE SOUTH DAKOTA/SW MINNESOTA/NW IOWA
NATIONAL WEATHER SERVICE SIOUX FALLS SD
300 PM CDT WED JUL 30 2014

NOTE: "FAIR" INDICATES FEW OR NO CLOUDS BELOW 12,000 FEET WITH NO
SIGNIFICANT WEATHER AND OR OBSTRUCTIONS TO VISIBILITY.


SDZ038>040-050-052>070-302100-
SOUTHEAST SOUTH DAKOTA

CITY           SKY/WX    TMP DP  RH WIND       PRES   REMARKS
CHAMBERLAIN    MOSUNNY   79  53  40 CALM      30.12F
HURON          SUNNY     81  53  37 VRB5      30.12F
MADISON        FAIR      75  54  46 E3        30.15F
MITCHELL       MOSUNNY   80  53  39 CALM      30.13F
SIOUX FALLS    MOSUNNY   79  54  41 S6        30.14S
WINNER         FAIR      85  49  28 E6        30.13F
YANKTON        SUNNY    N/A N/A N/A MISG        N/A
$$

MNZ071-072-080-081-089-090-097-098-302100-
SOUTHWEST MINNESOTA

CITY           SKY/WX    TMP DP  RH WIND       PRES   REMARKS
FAIRMONT       MOSUNNY   79  48  34 NW8       30.11S
JACKSON        CLOUDY    77  54  44 N5        30.13F
LUVERNE        MOSUNNY   79  50  36 NW6       30.14S
MARSHALL       SUNNY     75  54  46 N7        30.12S
MONTEVIDEO     MOSUNNY   79  55  44 N3        30.12S
PIPESTONE      MOSUNNY   75  52  43 N5        30.14F
REDWOOD FALLS  SUNNY     79  54  41 N8        30.10F
TRACY          MOSUNNY   77  55  46 CALM      30.13F
WINDOM         SUNNY     77  54  44 W7        30.13S
WORTHINGTON    SUNNY     73  52  46 N7        30.15F
$$

IAZ001>003-012>014-020>022-031-032-NEZ013-014-SDZ071-302100-
NORTHWEST IOWA

CITY           SKY/WX    TMP DP  RH WIND       PRES   REMARKS
CHEROKEE       PTSUNNY   77  55  47 N6        30.13S
DENISON        MOSUNNY   77  54  44 N7        30.12S
ESTHERVILLE    MOSUNNY   76  55  48 NE5       30.12F
LE MARS        PTSUNNY   77  54  44 N8        30.14S
ORANGE CITY    MOSUNNY   79  52  38 NW3       30.14F
SHELDON        MOSUNNY   77  54  44 W6        30.13S
SIOUX CITY     MOSUNNY   82  55  39 NE3       30.13F
SPENCER        MOSUNNY   78  54  43 NW7       30.13F
STORM LAKE     SUNNY     75  57  53 VRB5G13   30.14F
$$

ABBREVIATIONS USED IN REMARKS
   TC - TEMPERATURE IN CELSIUS
  WCI - WIND CHILL INDEX
   HX - HEAT INDEX
  VSB - VISIBILITY



USA.gov is the U.S. government's official web portal to all federal, state and local government web resources and services.